Location: Dos Palmas
(32.4468°N, 116.8732°W)
Time: 13:32:55
(UTC+00:00)

IUS-18 SRM-1 - Pass Details

Date: 20 June 2021
Orbit: 295 x 20534 km, 27.9° (Epoch: 29 July)

Event Time Altitude Azimuth Distance (km) Brightness Sun altitude
Rises 03:25:25 0° 250° (WSW) 14,735 10.1 -5.9°
Reaches altitude 10° 03:44:30 10° 249° (WSW) 9,375 9.0 -9.2°
Maximum altitude 04:05:54 54° 179° (S) 1,587 4.4 -12.8°
Enters shadow 04:09:41 16° 104° (ESE) 1,915 4.5 -13.4°
